#timestamp,LO_Frequency,Hit,StdDev 
1592564415.1,286047004.4,N
1592564435.8,286047003.4,N
1592564455.7,286047003.1,N
1592564475.5,286047005.9,Y
1592564495.4,286047003.1,P
1592564515.2,286047002.5,N
1592564535.0,286047000.1,N
1592564535.9,286047000.1,N
1592564555.8,286047001.5,N
1592564575.6,286047002.1,N
1592564595.4,286047002.7,N
1592564615.3,286047004.3,Y
1592564635.1,286047000.1,P
1592564655.9,286047001.3,N
1592564675.7,286047001.6,N
1592564695.5,286047001.9,N
1592564715.4,286047002.8,Y
1592564735.2,286046999.0,P
1592564755.1,286046999.0,N
1592564756.0,286046999.0,N
1592564775.8,286046999.3,N
1592564795.6,286046997.3,Y
1592564815.5,286046996.9,P
1592564835.3,286046995.0,P
1592564855.1,286046993.7,P
1592564875.9,286046993.7,N
1592564895.7,286046996.3,N
1592564915.6,286046994.5,N
1592564935.4,286046991.9,Y
1592564955.2,286046997.0,P
1592564975.1,286046999.1,N
1592564976.0,286046999.1,N
1592564995.8,286046998.5,N
1592565015.7,286047000.9,N
1592565035.5,286046998.2,N
1592565055.3,286047000.7,N
1592565075.2,286046999.9,N
1592565095.0,286047002.1,N
1592565095.9,286047002.1,N
1592565115.8,286047003.8,N
1592565135.6,286047005.6,N
1592565155.4,286047005.8,N
1592565175.3,286047005.3,N
1592565195.1,286047005.4,N
1592565215.8,286047005.5,N
1592565235.7,286047005.2,N
1592565255.5,286047004.7,N
1592565275.4,286047007.5,N
1592565295.2,286047005.4,N
1592565315.0,286047002.9,N
1592565315.9,286047002.9,N
1592565335.8,286047004.1,N
1592565355.6,286047004.0,N
1592565375.4,286047003.9,N
1592565395.3,286047001.5,N
1592565415.1,286047001.4,N
1592565435.9,286047001.4,N
1592565455.7,286047004.4,N
1592565475.5,286047006.0,N
1592565495.4,286047005.3,N
1592565515.2,286047004.6,N
1592565535.1,286047007.6,Y
1592565536.0,286047007.6,P
1592565555.8,286047001.3,N
1592565575.6,286047001.9,N
1592565595.5,286047000.0,N
1592565615.3,286047000.7,N
1592565635.2,286046998.4,N
1592565655.9,286046996.6,N
1592565675.7,286046997.0,N
1592565695.6,286046997.3,N
1592565715.4,286046997.0,N
1592565735.2,286046997.3,N
1592565755.1,286046996.9,N
1592565756.0,286046996.9,N
1592565775.8,286047001.0,N
1592565795.7,286047001.9,N
1592565815.5,286047001.5,N
1592565835.3,286047002.8,N
1592565855.2,286047002.4,N
1592565875.0,286047002.6,N
1592565875.9,286047002.6,N
1592565895.8,286047002.4,N
1592565915.6,286046999.7,N
1592565935.4,286047003.9,N
1592565955.3,286047003.9,N
1592565975.1,286047001.8,N
1592565995.8,286047002.2,N
1592566015.7,286047001.3,N
1592566035.5,286047003.2,N
1592566055.4,286047005.6,N
1592566075.2,286047001.4,N
1592566095.0,286047003.9,N
1592566095.9,286047003.9,N
1592566115.8,286047001.4,N
1592566135.6,286047004.3,N
1592566155.4,286047004.1,N
1592566175.3,286047003.6,N
1592566195.1,286047005.4,N
1592566215.9,286047005.7,N
1592566235.7,286047007.0,N
1592566255.5,286047006.3,N
1592566275.4,286047005.6,N
1592566295.2,286047003.1,N
1592566315.0,286047004.0,N
1592566315.9,286047004.0,N
1592566335.8,286047004.3,N
1592566355.6,286047002.0,N
1592566375.5,286047002.1,N
1592566395.3,286047002.2,N
1592566415.1,286047001.9,N
1592566435.9,286047001.9,N
1592566455.7,286047001.6,N
1592566475.5,286047002.2,N
1592566495.4,286046999.7,N
1592566515.2,286046999.7,N
1592566535.0,286047000.8,N
1592566536.0,286047000.8,N
1592566555.8,286047000.6,N
1592566575.6,286047002.8,N
1592566595.5,286047000.0,N
1592566615.3,286047001.6,N
1592566635.1,286047003.0,N
1592566655.9,286047004.9,N
1592566675.7,286047004.7,N
1592566695.5,286047004.5,N
1592566715.4,286047007.4,Y
1592566735.2,286047003.6,P
1592566755.1,286047005.6,P
1592566756.0,286047005.6,P
1592566775.8,286047003.3,N
1592566795.6,286047004.7,Y
1592566815.5,286046999.8,P
1592566835.3,286046999.8,N
1592566855.2,286047001.0,N
1592566875.9,286046998.7,N
1592566895.7,286046998.9,N
1592566915.6,286047000.3,N
1592566935.4,286046999.2,N
1592566955.2,286046995.4,N
1592566975.1,286046995.0,N
1592566976.0,286046995.0,N
1592566995.8,286046995.4,N
1592567015.6,286046995.6,N
1592567035.5,286046993.4,N
1592567055.3,286046993.7,N
1592567075.2,286046996.4,N
1592567095.9,286046995.2,N
1592567115.7,286046995.0,N
1592567135.6,286046996.2,N
1592567155.4,286046994.0,N
1592567175.2,286046993.4,N
1592567195.1,286046996.1,N
1592567196.0,286046996.1,N
1592567215.8,286046994.1,N
1592567235.7,286046994.3,N
1592567255.5,286046991.9,N
1592567275.3,286046990.9,Y
1592567295.2,286046996.3,P
1592567315.0,286046994.3,P
1592567315.9,286046994.3,P
1592567335.8,286046992.4,Y
1592567355.6,286046999.2,P
1592567375.4,286046996.5,N
1592567395.3,286047000.0,N
1592567415.1,286047001.4,N
1592567416.0,286047001.4,N
1592567435.8,286047003.0,N
1592567455.7,286047005.8,N
1592567475.5,286047004.0,N
1592567495.3,286047004.3,N
1592567515.2,286047001.4,N
1592567535.0,286047001.3,N
1592567535.9,286047001.3,N
1592567555.8,286047004.4,N
1592567575.6,286047004.1,N
1592567595.4,286047004.4,N
1592567615.3,286047003.3,N
1592567635.1,286047003.4,N
1592567655.8,286047003.4,N
1592567675.7,286047003.0,N
1592567695.5,286047003.4,N
1592567715.4,286047003.5,N
1592567735.2,286047005.6,N
1592567755.0,286047006.0,N
1592567755.9,286047006.0,N
1592567775.8,286047003.6,N
1592567795.6,286047003.1,N
1592567815.4,286047005.8,N
1592567835.3,286047003.0,N
1592567855.1,286047004.5,N
1592567875.9,286047004.7,N
1592567895.7,286047005.7,N
1592567915.5,286047005.1,N
1592567935.4,286047004.2,N
1592567955.2,286047003.8,N
1592567975.0,286047002.9,N
1592567975.9,286047002.9,N
1592567995.8,286047001.9,N
